Starlink 1269

operational
NORAD ID: 45197 Int'l Des: 2020-012 Owner: SPXS Country: US Constellation: starlink
LEOCIRCULARSTARLINK_TYPE

Starlink 1269について

説明を読み込み中...

リアルタイム位置

3D地球を読み込み中...

次回通過

高度履歴

Altitude vs Time

uPlot chart will show altitude changes over time

軌道要素

1 45197U 20012V 25305.61672917 .00001596 00000-0 12605-3 0 9993
2 45197 53.0536 261.5624 0001460 100.3189 259.7965 15.06387055315506
Epoch: Nov 1, 2025 • Age: 18 hours

現在のステータス

高度 547.0 km
速度 7.59 km/s
衛星直下点 19.55°N, 114.19°W
打ち上げ日 Feb 17, 2020
運用期間 5.7 years
タイプ internet

技術仕様

分類 Payload
質量 260.00 kg
乾燥質量 248.00 kg
総質量 260.00 kg
長さ 0.20 m
直径 2.80 m
スパン 9.00 m
形状 Box + pan
製造者 SPXS
バスタイプ Starlink
フェーズステータス In Orbit
所有者/国 SPXS/US

大規模コンステレーション

Loading constellations...